N1DNE Weather Reports


Display with metric or nautical units.
time (UTC)temp
F
wind
direction
speed
MPH
gust
MPH
rain 1hr
in
rain 24hr
in
rain mn
in
humidity
%
barometer
mb
20260904163546 77 24 1.0 8.0 0.00 0.00 0.00 67 1009.0
20260904162548 77 74 2.0 7.0 0.00 0.00 0.00 69 1008.9
20260904161549 77 17 1.0 6.0 0.00 0.00 0.00 72 1009.0
20260904161018 77 74 0.0 6.0 0.00 0.00 0.00 72 1009.2
20260904160017 77 174 0.0 4.0 0.00 0.00 0.00 75 1009.4
20260904154541 76 9 1.0 4.0 0.00 0.00 0.00 76 1009.4
20260904153540 76 54 1.0 6.0 0.00 0.00 0.00 75 1009.4
20260904152541 76 179 1.0 8.0 0.00 0.00 0.00 78 1009.6
20260904151539 76 274 1.0 3.0 0.00 0.00 0.00 79 1009.6
20260904150541 75 123 0.0 9.0 0.00 0.00 0.00 79 1009.5
20260904145540 75 25 0.0 1.0 0.00 0.00 0.00 80 1009.6
20260904144539 75 26 1.0 5.0 0.00 0.00 0.00 79 1009.5
20260904143535 74 80 1.0 4.0 0.00 0.00 0.00 80 1009.6
20260904142537 74 90 1.0 7.0 0.00 0.00 0.00 80 1009.6
20260904142058 74 71 1.0 7.0 0.00 0.00 0.00 81 1009.6
20260904141940 73 184 0.0 4.0 0.00 0.00 0.00 83 1009.5
20260904135536 73 186 0.0 4.0 0.00 0.00 0.00 84 1009.6
20260904134535 73 101 0.0 1.0 0.00 0.00 0.00 85 1009.6
20260904134020 73 109 1.0 7.0 0.00 0.00 0.00 86 1009.6
20260904132534 73 65 1.0 5.0 0.00 0.00 0.00 88 1009.6
20260904131533 72 79 1.0 4.0 0.00 0.00 0.00 89 1009.7
20260904131013 72 72 0.0 2.0 0.00 0.00 0.00 91 1009.8
20260904125535 71 63 0.0 4.0 0.00 0.00 0.00 93 1009.7
20260904125021 71 76 0.0 3.0 0.00 0.00 0.00 94 1009.7
20260904124012 71 76 0.0 3.0 0.00 0.00 0.00 95 1009.6
20260904123017 70 72 0.0 5.0 0.00 0.00 0.00 96 1009.6
20260904122009 70 60 0.0 1.0 0.00 0.00 0.00 96 1009.5
20260904120533 69 40 0.0 3.0 0.00 0.00 0.00 96 1009.6
20260904115532 69 50 0.0 2.0 0.00 0.00 0.00 96 1009.5
20260904114532 69 50 0.0 1.0 0.00 0.00 0.00 96 1009.5
20260904114010 69 50 1.0 2.0 0.00 0.01 0.00 96 1009.2
20260904112532 69 50 1.0 4.0 0.00 0.01 0.00 96 1009.0
20260904111531 69 61 1.0 2.0 0.00 0.01 0.00 96 1009.0
20260904110531 69 55 0.0 3.0 0.00 0.01 0.00 96 1008.9
20260904105532 69 182 0.0 0.0 0.00 0.01 0.00 96 1008.9
20260904104532 69 182 0.0 0.0 0.00 0.01 0.00 96 1008.9
20260904103531 69 182 0.0 0.0 0.00 0.01 0.00 96 1008.8
20260904102533 70 182 0.0 0.0 0.00 0.02 0.00 96 1008.7
20260904101532 70 182 0.0 0.0 0.00 0.02 0.00 96 1008.6
20260904100531 70 182 0.0 0.0 0.00 0.02 0.00 96 1008.7
20260904095533 70 182 0.0 0.0 0.00 0.02 0.00 96 1008.8
20260904094534 70 182 0.0 0.0 0.00 0.02 0.00 96 1008.7
20260904093532 70 182 0.0 0.0 0.00 0.02 0.00 96 1008.6
20260904093005 70 182 0.0 0.0 0.00 0.02 0.00 96 1008.4
20260904091527 70 182 0.0 0.0 0.00 0.03 0.00 96 1008.2
20260904090525 70 182 0.0 0.0 0.00 0.14 0.00 96 1008.1
20260904085525 70 182 0.0 0.0 0.00 0.14 0.00 96 1008.1
20260904084528 70 182 0.0 0.0 0.00 0.19 0.00 96 1008.1
20260904084009 71 182 0.0 0.0 0.00 0.19 0.00 96 1008.0
20260904083011 71 182 0.0 0.0 0.00 0.19 0.00 96 1008.1
20260904081526 71 182 0.0 0.0 0.00 0.19 0.00 96 1008.2
20260904080525 71 182 0.0 0.0 0.00 0.19 0.00 96 1008.2
20260904075527 71 182 0.0 0.0 0.00 0.19 0.00 96 1008.4
20260904074520 71 182 0.0 0.0 0.00 0.19 0.00 96 1008.3
20260904073519 71 182 0.0 0.0 0.00 0.19 0.00 96 1008.5
20260904072520 71 182 0.0 1.0 0.00 0.19 0.00 96 1008.6
20260904071519 71 182 1.0 2.0 0.00 0.19 0.00 96 1008.5
20260904070519 71 182 0.0 1.0 0.00 0.19 0.00 96 1008.5
20260904065519 71 182 0.0 1.0 0.00 0.19 0.00 96 1008.7
20260904064519 71 182 0.0 0.0 0.00 0.19 0.00 96 1008.7
20260904063520 71 182 0.0 0.0 0.00 0.19 0.00 96 1008.9
20260904062520 71 182 0.0 0.0 0.00 0.20 0.00 96 1008.9
20260904061514 71 182 0.0 0.0 0.00 0.20 0.00 96 1008.9
20260904060514 71 182 0.0 1.0 0.00 0.23 0.00 96 1009.0
20260904055513 71 182 0.0 1.0 0.00 0.26 0.00 96 1009.1
20260904054514 71 182 0.0 0.0 0.00 0.27 0.00 96 1009.2
20260904053513 71 182 0.0 0.0 0.00 0.30 0.00 96 1009.3
20260904052513 71 182 0.0 0.0 0.00 0.30 0.00 96 1009.4
20260904051953 71 182 0.0 0.0 0.00 0.30 0.00 96 1009.5
20260904050515 71 182 0.0 0.0 0.00 0.30 0.00 96 1009.6
20260904045514 71 182 0.0 0.0 0.00 0.30 0.00 96 1009.6
20260904044508 71 182 0.0 0.0 0.00 0.30 0.00 96 1009.5
20260904043507 71 182 0.0 1.0 0.00 0.30 0.00 96 1009.9
20260904042508 71 182 0.0 2.0 0.00 0.30 0.00 96 1009.9
20260904041507 71 182 1.0 2.0 0.00 0.30 0.00 96 1010.1
20260904040506 71 182 0.0 1.0 0.00 0.30 0.00 96 1010.3
20260904035939 71 182 0.0 0.0 0.00 0.30 0.30 95 1010.2
20260904034506 71 182 0.0 0.0 0.00 0.30 0.30 95 1010.2
20260904033507 71 182 0.0 0.0 0.00 0.30 0.30 95 1010.2
20260904032950 71 182 0.0 0.0 0.00 0.30 0.30 95 1010.5
20260904031503 71 182 0.0 1.0 0.00 0.30 0.30 95 1010.4
20260904030504 72 182 0.0 1.0 0.00 0.30 0.30 95 1010.5
20260904025505 72 182 0.0 1.0 0.00 0.30 0.30 95 1010.7
20260904024945 72 182 0.0 1.0 0.00 0.30 0.30 95 1010.6
20260904023500 72 182 0.0 0.0 0.00 0.30 0.30 95 1010.5
20260904022503 72 182 0.0 0.0 0.00 0.30 0.30 95 1010.4
20260904021503 72 182 0.0 0.0 0.00 0.30 0.30 95 1010.7
20260904020940 72 182 0.0 0.0 0.00 0.30 0.30 95 1010.8
20260904015942 73 182 0.0 0.0 0.00 0.30 0.30 95 1010.9
20260904014941 73 182 0.0 0.0 0.00 0.30 0.30 95 1011.0
20260904013504 73 182 0.0 1.0 0.00 0.30 0.30 95 1011.1
20260904012501 73 182 0.0 0.0 0.00 0.30 0.30 95 1011.0
20260904011501 73 182 0.0 1.0 0.00 0.30 0.30 94 1010.9
20260904011432 73 182 0.0 0.0 0.00 0.30 0.30 94 1010.7
20260904005503 73 182 0.0 0.0 0.00 0.30 0.30 94 1010.7
20260904004501 73 182 0.0 0.0 0.00 0.30 0.30 94 1010.7
20260904003948 74 182 0.0 0.0 0.00 0.30 0.30 94 1010.6
20260904002930 74 182 0.0 0.0 0.00 0.30 0.30 93 1010.7
20260904001456 74 182 0.0 0.0 0.00 0.30 0.30 93 1010.6
20260904000457 74 182 0.0 0.0 0.00 0.30 0.30 93 1010.0
20260903235457 75 182 0.0 0.0 0.00 0.30 0.30 92 1010.0
20260903234454 75 182 0.0 0.0 0.00 0.30 0.30 92 1010.0
20260903233455 75 182 0.0 0.0 0.00 0.30 0.30 92 1010.1
20260903232454 76 182 0.0 0.0 0.00 0.30 0.30 92 1010.0
20260903231456 76 182 0.0 0.0 0.00 0.30 0.30 91 1010.1
20260903230456 76 182 0.0 0.0 0.00 0.30 0.30 91 1010.0
20260903225453 77 182 0.0 0.0 0.00 0.30 0.30 91 1010.0
20260903224454 77 182 0.0 0.0 0.00 0.30 0.30 90 1009.9
20260903223452 77 182 0.0 0.0 0.00 0.30 0.30 90 1009.9
20260903222455 78 182 0.0 1.0 0.00 0.30 0.30 89 1010.1
20260903221452 78 182 0.0 2.0 0.00 0.30 0.30 89 1010.3
20260903220449 78 182 0.0 2.0 0.00 0.30 0.30 89 1010.2
20260903215451 78 182 0.0 0.0 0.00 0.30 0.30 89 1010.2
20260903214927 78 182 0.0 0.0 0.00 0.30 0.30 89 1010.1
20260903213450 78 182 0.0 2.0 0.00 0.30 0.30 89 1010.1
20260903212450 78 182 0.0 0.0 0.00 0.30 0.30 90 1010.1
20260903211450 78 182 0.0 0.0 0.00 0.30 0.30 89 1010.0
20260903210928 78 182 0.0 0.0 0.00 0.30 0.30 89 1010.1
20260903205452 78 182 0.0 1.0 0.00 0.30 0.30 89 1010.0
20260903204451 78 182 0.0 0.0 0.00 0.30 0.30 90 1010.2
20260903203450 78 182 0.0 0.0 0.00 0.30 0.30 89 1010.2
20260903202448 78 182 0.0 0.0 0.00 0.30 0.30 88 1010.3
20260903201450 78 182 0.0 0.0 0.00 0.30 0.30 87 1010.2
20260903200450 78 182 0.0 1.0 0.00 0.30 0.30 87 1010.3
20260903195449 78 182 0.0 0.0 0.00 0.30 0.30 87 1010.3
20260903194450 78 182 0.0 0.0 0.00 0.30 0.30 87 1010.5
20260903193449 78 182 0.0 0.0 0.00 0.30 0.30 88 1010.5
20260903192933 78 182 0.0 0.0 0.00 0.30 0.30 86 1010.6
20260903191450 79 182 0.0 0.0 0.00 0.30 0.30 86 1010.7
20260903190449 79 182 0.0 0.0 0.00 0.30 0.30 84 1010.8
20260903185927 79 182 0.0 0.0 0.00 0.30 0.30 84 1010.9
20260903184443 79 182 0.0 3.0 0.00 0.30 0.30 83 1010.8
20260903183444 79 182 0.0 3.0 0.00 0.30 0.30 84 1010.9
20260903182916 78 182 0.0 0.0 0.00 0.30 0.30 86 1011.1
20260903181443 78 182 0.0 0.0 0.00 0.30 0.30 84 1011.1
20260903180443 78 182 0.0 3.0 0.00 0.30 0.30 84 1011.1
20260903175919 78 182 1.0 3.0 0.00 0.30 0.30 84 1011.2
20260903174442 77 182 1.0 5.0 0.00 0.30 0.30 84 1011.2
20260903173443 77 182 0.0 2.0 0.00 0.30 0.30 87 1011.2
20260903172438 77 182 0.0 3.0 0.00 0.30 0.30 86 1011.3
20260903171438 76 182 0.0 3.0 0.00 0.30 0.30 87 1011.4
20260903170437 76 182 0.0 2.0 0.00 0.30 0.30 88 1011.3
20260903165437 76 182 0.0 4.0 0.00 0.30 0.30 89 1011.3
20260903164913 75 182 0.0 4.0 0.00 0.30 0.30 90 1011.4